Year,Month,Day,Hour,Minute,Value (Times are PST for temperature in C)
2017,11,05,00,00,2.10
2017,11,05,00,01,2.10
2017,11,05,00,02,2.10
2017,11,05,00,03,2.10
2017,11,05,00,04,2.10
2017,11,05,00,05,2.10
2017,11,05,00,06,2.10
2017,11,05,00,07,2.10
2017,11,05,00,08,2.10
2017,11,05,00,09,2.10
2017,11,05,00,10,2.10
2017,11,05,00,11,2.10
2017,11,05,00,12,2.10
2017,11,05,00,13,2.10
2017,11,05,00,14,2.10
2017,11,05,00,15,2.10
2017,11,05,00,16,2.10
2017,11,05,00,17,2.10
2017,11,05,00,18,2.10
2017,11,05,00,19,2.10
2017,11,05,00,20,2.10
2017,11,05,00,21,2.10
2017,11,05,00,22,2.10
2017,11,05,00,23,2.20
2017,11,05,00,24,2.10
2017,11,05,00,25,2.10
2017,11,05,00,26,2.20
2017,11,05,00,27,2.20
2017,11,05,00,28,2.20
2017,11,05,00,29,2.20
2017,11,05,00,30,2.20
2017,11,05,00,31,2.20
2017,11,05,00,32,2.20
2017,11,05,00,33,2.20
2017,11,05,00,34,2.20
2017,11,05,00,35,2.20
2017,11,05,00,36,2.20
2017,11,05,00,37,2.20
2017,11,05,00,38,2.20
2017,11,05,00,39,2.20
2017,11,05,00,40,2.30
2017,11,05,00,41,2.30
2017,11,05,00,42,2.30
2017,11,05,00,43,2.30
2017,11,05,00,44,2.30
2017,11,05,00,45,2.30
2017,11,05,00,46,2.30
2017,11,05,00,47,2.30
2017,11,05,00,48,2.30
2017,11,05,00,49,2.30
2017,11,05,00,50,2.30
2017,11,05,00,51,2.30
2017,11,05,00,52,2.30
2017,11,05,00,53,2.30
2017,11,05,00,54,2.30
2017,11,05,00,55,2.30
2017,11,05,00,56,2.30
2017,11,05,00,57,2.30
2017,11,05,00,58,2.30
2017,11,05,00,59,2.30
2017,11,05,01,00,2.30
2017,11,05,01,01,2.30
2017,11,05,01,02,2.30
2017,11,05,01,03,2.30
2017,11,05,01,04,2.30
2017,11,05,01,05,2.30
2017,11,05,01,06,2.40
2017,11,05,01,07,2.40
2017,11,05,01,08,2.40
2017,11,05,01,09,2.40
2017,11,05,01,10,2.40
2017,11,05,01,11,2.40
2017,11,05,01,12,2.40
2017,11,05,01,13,2.40
2017,11,05,01,14,2.40
2017,11,05,01,15,2.40
2017,11,05,01,16,2.40
2017,11,05,01,17,2.40
2017,11,05,01,18,2.40
2017,11,05,01,19,2.40
2017,11,05,01,20,2.40
2017,11,05,01,21,2.30
2017,11,05,01,22,2.30
2017,11,05,01,23,2.30
2017,11,05,01,24,2.40
2017,11,05,01,25,2.40
2017,11,05,01,26,2.40
2017,11,05,01,27,2.40
2017,11,05,01,28,2.40
2017,11,05,01,29,2.40
2017,11,05,01,30,2.40
2017,11,05,01,31,2.40
2017,11,05,01,32,2.40
2017,11,05,01,33,2.40
2017,11,05,01,34,2.40
2017,11,05,01,35,2.40
2017,11,05,01,36,2.40
2017,11,05,01,37,2.40
2017,11,05,01,38,2.40
2017,11,05,01,39,2.40
2017,11,05,01,40,2.40
2017,11,05,01,41,2.40
2017,11,05,01,42,2.40
2017,11,05,01,43,2.40
2017,11,05,01,44,2.40
2017,11,05,01,45,2.40
2017,11,05,01,46,2.40
2017,11,05,01,47,2.40
2017,11,05,01,48,2.40
2017,11,05,01,49,2.40
2017,11,05,01,50,2.40
2017,11,05,01,51,2.40
2017,11,05,01,52,2.30
2017,11,05,01,53,2.30
2017,11,05,01,54,2.30
2017,11,05,01,55,2.30
2017,11,05,01,56,2.30
2017,11,05,01,57,2.30
2017,11,05,01,58,2.30
2017,11,05,01,59,2.30
2017,11,05,02,02,2.20
2017,11,05,02,03,2.20
2017,11,05,02,04,2.20
2017,11,05,02,05,2.20
2017,11,05,02,06,2.20
2017,11,05,02,07,2.20
2017,11,05,02,08,2.20
2017,11,05,02,09,2.20
2017,11,05,02,10,2.20
2017,11,05,02,11,2.20
2017,11,05,02,12,2.20
2017,11,05,02,13,2.20
2017,11,05,02,14,2.20
2017,11,05,02,15,2.20
2017,11,05,02,16,2.20
2017,11,05,02,17,2.20
2017,11,05,02,18,2.20
2017,11,05,02,19,2.20
2017,11,05,02,20,2.20
2017,11,05,02,21,2.20
2017,11,05,02,22,2.20
2017,11,05,02,23,2.20
2017,11,05,02,24,2.20
2017,11,05,02,25,2.20
2017,11,05,02,26,2.20
2017,11,05,02,27,2.20
2017,11,05,02,28,2.20
2017,11,05,02,29,2.20
2017,11,05,02,30,2.20
2017,11,05,02,31,2.20
2017,11,05,02,32,2.20
2017,11,05,02,33,2.20
2017,11,05,02,34,2.20
2017,11,05,02,35,2.20
2017,11,05,02,36,2.20
2017,11,05,02,37,2.20
2017,11,05,02,38,2.20
2017,11,05,02,39,2.20
2017,11,05,02,40,2.20
2017,11,05,02,41,2.20
2017,11,05,02,42,2.20
2017,11,05,02,43,2.20
2017,11,05,02,44,2.20
2017,11,05,02,45,2.20
2017,11,05,02,46,2.20
2017,11,05,02,47,2.20
2017,11,05,02,48,2.20
2017,11,05,02,49,2.20
2017,11,05,02,50,2.20
2017,11,05,02,51,2.20
2017,11,05,02,52,2.20
2017,11,05,02,53,2.20
2017,11,05,02,54,2.20
2017,11,05,02,55,2.20
2017,11,05,02,56,2.20
2017,11,05,02,57,2.20
2017,11,05,02,58,2.20
2017,11,05,02,59,2.20
2017,11,05,03,00,2.20
2017,11,05,03,01,2.20
2017,11,05,03,02,2.20
2017,11,05,03,03,2.20
2017,11,05,03,04,2.20
2017,11,05,03,05,2.20
2017,11,05,03,06,2.20
2017,11,05,03,07,2.20
2017,11,05,03,08,2.20
2017,11,05,03,09,2.20
2017,11,05,03,10,2.20
2017,11,05,03,11,2.20
2017,11,05,03,12,2.20
2017,11,05,03,13,2.20
2017,11,05,03,14,2.20
2017,11,05,03,15,2.20
2017,11,05,03,16,2.20
2017,11,05,03,17,2.20
2017,11,05,03,18,2.20
2017,11,05,03,19,2.20
2017,11,05,03,20,2.20
2017,11,05,03,21,2.20
2017,11,05,03,22,2.20
2017,11,05,03,23,2.20
2017,11,05,03,24,2.20
2017,11,05,03,25,2.20
2017,11,05,03,26,2.20
2017,11,05,03,27,2.20
2017,11,05,03,28,2.20
2017,11,05,03,29,2.20
2017,11,05,03,30,2.20
2017,11,05,03,31,2.20
2017,11,05,03,32,2.20
2017,11,05,03,33,2.20
2017,11,05,03,34,2.20
2017,11,05,03,35,2.20
2017,11,05,03,36,2.20
2017,11,05,03,37,2.20
2017,11,05,03,38,2.20
2017,11,05,03,39,2.20
2017,11,05,03,40,2.10
2017,11,05,03,41,2.10
2017,11,05,03,42,2.10
2017,11,05,03,43,2.10
2017,11,05,03,44,2.10
2017,11,05,03,45,2.10
2017,11,05,03,46,2.10
2017,11,05,03,47,2.10
2017,11,05,03,48,2.10
2017,11,05,03,49,2.10
2017,11,05,03,50,2.10
2017,11,05,03,51,2.10
2017,11,05,03,52,2.10
2017,11,05,03,53,2.10
2017,11,05,03,54,2.00
2017,11,05,03,55,2.00
2017,11,05,03,56,2.00
2017,11,05,03,57,2.00
2017,11,05,03,58,2.00
2017,11,05,03,59,2.00
2017,11,05,04,00,2.00
2017,11,05,04,01,2.00
2017,11,05,04,02,1.90
2017,11,05,04,03,2.00
2017,11,05,04,04,1.90
2017,11,05,04,05,1.90
2017,11,05,04,06,1.90
2017,11,05,04,07,1.90
2017,11,05,04,08,1.90
2017,11,05,04,09,1.90
2017,11,05,04,10,1.90
2017,11,05,04,11,1.90
2017,11,05,04,12,1.80
2017,11,05,04,13,1.80
2017,11,05,04,14,1.80
2017,11,05,04,15,1.80
2017,11,05,04,16,1.80
2017,11,05,04,17,1.80
2017,11,05,04,18,1.80
2017,11,05,04,19,1.80
2017,11,05,04,20,1.80
2017,11,05,04,21,1.80
2017,11,05,04,22,1.80
2017,11,05,04,23,1.80
2017,11,05,04,24,1.80
2017,11,05,04,25,1.80
2017,11,05,04,26,1.80
2017,11,05,04,27,1.80
2017,11,05,04,28,1.80
2017,11,05,04,29,1.80
2017,11,05,04,30,1.80
2017,11,05,04,31,1.80
2017,11,05,04,32,1.80
2017,11,05,04,33,1.70
2017,11,05,04,34,1.70
2017,11,05,04,35,1.70
2017,11,05,04,36,1.70
2017,11,05,04,37,1.70
2017,11,05,04,38,1.70
2017,11,05,04,39,1.70
2017,11,05,04,40,1.70
2017,11,05,04,41,1.70
2017,11,05,04,42,1.70
2017,11,05,04,43,1.70
2017,11,05,04,44,1.70
2017,11,05,04,45,1.70
2017,11,05,04,46,1.70
2017,11,05,04,47,1.70
2017,11,05,04,48,1.70
2017,11,05,04,49,1.70
2017,11,05,04,50,1.70
2017,11,05,04,51,1.60
2017,11,05,04,52,1.60
2017,11,05,04,53,1.60
2017,11,05,04,54,1.60
2017,11,05,04,55,1.60
2017,11,05,04,56,1.60
2017,11,05,04,57,1.60
2017,11,05,04,58,1.60
2017,11,05,04,59,1.60
2017,11,05,05,00,1.60
2017,11,05,05,01,1.60
2017,11,05,05,02,1.60
2017,11,05,05,03,1.60
2017,11,05,05,04,1.60
2017,11,05,05,05,1.60
2017,11,05,05,06,1.60
2017,11,05,05,07,1.50
2017,11,05,05,08,1.50
2017,11,05,05,09,1.50
2017,11,05,05,10,1.50
2017,11,05,05,11,1.50
2017,11,05,05,12,1.50
2017,11,05,05,13,1.40
2017,11,05,05,14,1.40
2017,11,05,05,15,1.40
2017,11,05,05,16,1.40
2017,11,05,05,17,1.40
2017,11,05,05,18,1.40
2017,11,05,05,19,1.40
2017,11,05,05,20,1.40
2017,11,05,05,21,1.40
2017,11,05,05,22,1.40
2017,11,05,05,23,1.30
2017,11,05,05,24,1.30
2017,11,05,05,25,1.30
2017,11,05,05,26,1.30
2017,11,05,05,27,1.30
2017,11,05,05,28,1.30
2017,11,05,05,29,1.30
2017,11,05,05,30,1.30
2017,11,05,05,31,1.30
2017,11,05,05,32,1.30
2017,11,05,05,33,1.20
2017,11,05,05,34,1.20
2017,11,05,05,35,1.20
2017,11,05,05,36,1.20
2017,11,05,05,37,1.20
2017,11,05,05,38,1.20
2017,11,05,05,39,1.20
2017,11,05,05,40,1.20
2017,11,05,05,41,1.20
2017,11,05,05,42,1.20
2017,11,05,05,43,1.10
2017,11,05,05,44,1.10
2017,11,05,05,45,1.10
2017,11,05,05,46,1.10
2017,11,05,05,47,1.10
2017,11,05,05,48,1.10
2017,11,05,05,49,1.00
2017,11,05,05,50,1.10
2017,11,05,05,51,1.10
2017,11,05,05,52,1.10
2017,11,05,05,53,1.10
2017,11,05,05,54,1.10
2017,11,05,05,55,1.10
2017,11,05,05,56,1.10
2017,11,05,05,57,1.10
2017,11,05,05,58,1.10
2017,11,05,05,59,1.10
2017,11,05,06,00,1.00
2017,11,05,06,01,1.00
2017,11,05,06,02,1.00
2017,11,05,06,03,0.90
2017,11,05,06,04,0.90
2017,11,05,06,05,0.90
2017,11,05,06,06,0.90
2017,11,05,06,07,0.80
2017,11,05,06,08,0.80
2017,11,05,06,09,0.80
2017,11,05,06,10,0.80
2017,11,05,06,11,0.70
2017,11,05,06,12,0.70
2017,11,05,06,13,0.70
2017,11,05,06,14,0.70
2017,11,05,06,15,0.70
2017,11,05,06,16,0.60
2017,11,05,06,17,0.60
2017,11,05,06,18,0.60
2017,11,05,06,19,0.60
2017,11,05,06,20,0.50
2017,11,05,06,21,0.50
2017,11,05,06,22,0.50
2017,11,05,06,23,0.50
2017,11,05,06,24,0.40
2017,11,05,06,25,0.40
2017,11,05,06,26,0.40
2017,11,05,06,27,0.40
2017,11,05,06,28,0.40
2017,11,05,06,29,0.40
2017,11,05,06,30,0.40
2017,11,05,06,31,0.40
2017,11,05,06,32,0.40
2017,11,05,06,33,0.30
2017,11,05,06,34,0.30
2017,11,05,06,35,0.30
2017,11,05,06,36,0.30
2017,11,05,06,37,0.30
2017,11,05,06,38,0.30
2017,11,05,06,39,0.30
2017,11,05,06,40,0.30
2017,11,05,06,41,0.30
2017,11,05,06,42,0.30
2017,11,05,06,43,0.20
2017,11,05,06,44,0.20
2017,11,05,06,45,0.20
2017,11,05,06,46,0.20
2017,11,05,06,47,0.20
2017,11,05,06,48,0.20
2017,11,05,06,49,0.20
2017,11,05,06,50,0.20
2017,11,05,06,51,0.20
2017,11,05,06,52,0.10
2017,11,05,06,53,0.10
2017,11,05,06,54,0.10
2017,11,05,06,55,0.10
2017,11,05,06,56,0.10
2017,11,05,06,57,0.10
2017,11,05,06,58,0.10
2017,11,05,06,59,0.00
2017,11,05,07,00,0.00
2017,11,05,07,01,0.00
2017,11,05,07,02,0.00
2017,11,05,07,03,0.00
2017,11,05,07,04,0.00
2017,11,05,07,05,-0.10
2017,11,05,07,06,-0.10
2017,11,05,07,07,-0.10
2017,11,05,07,08,-0.10
2017,11,05,07,09,-0.10
2017,11,05,07,10,-0.10
2017,11,05,07,11,-0.10
2017,11,05,07,12,-0.20
2017,11,05,07,13,-0.20
2017,11,05,07,14,-0.20
2017,11,05,07,15,-0.20
2017,11,05,07,16,-0.20
2017,11,05,07,17,-0.20
2017,11,05,07,18,-0.30
2017,11,05,07,19,-0.30
2017,11,05,07,20,-0.30
2017,11,05,07,21,-0.30
2017,11,05,07,22,-0.30
2017,11,05,07,23,-0.30
2017,11,05,07,24,-0.30
2017,11,05,07,25,-0.30
2017,11,05,07,26,-0.30
2017,11,05,07,27,-0.30
2017,11,05,07,28,-0.30
2017,11,05,07,29,-0.30
2017,11,05,07,30,-0.30
2017,11,05,07,31,-0.30
2017,11,05,07,32,-0.30
2017,11,05,07,33,-0.30
2017,11,05,07,34,-0.30
2017,11,05,07,35,-0.30
2017,11,05,07,36,-0.40
2017,11,05,07,37,-0.40
2017,11,05,07,38,-0.40
2017,11,05,07,39,-0.40
2017,11,05,07,40,-0.40
2017,11,05,07,41,-0.40
2017,11,05,07,42,-0.40
2017,11,05,07,43,-0.40
2017,11,05,07,44,-0.40
2017,11,05,07,45,-0.40
2017,11,05,07,46,-0.40
2017,11,05,07,47,-0.40
2017,11,05,07,48,-0.40
2017,11,05,07,49,-0.30
2017,11,05,07,50,-0.30
2017,11,05,07,51,-0.30
2017,11,05,07,52,-0.30
2017,11,05,07,53,-0.30
2017,11,05,07,54,-0.30
2017,11,05,07,55,-0.30
2017,11,05,07,56,-0.30
2017,11,05,07,57,-0.20
2017,11,05,07,58,-0.20
2017,11,05,07,59,-0.20
2017,11,05,08,00,-0.20
2017,11,05,08,01,-0.10
2017,11,05,08,02,-0.10
2017,11,05,08,03,0.00
2017,11,05,08,04,0.00
2017,11,05,08,05,0.00
2017,11,05,08,06,0.10
2017,11,05,08,07,0.20
2017,11,05,08,08,0.20
2017,11,05,08,09,0.30
2017,11,05,08,10,0.30
2017,11,05,08,11,0.40
2017,11,05,08,12,0.40
2017,11,05,08,13,0.40
2017,11,05,08,14,0.40
2017,11,05,08,15,0.40
2017,11,05,08,16,0.40
2017,11,05,08,17,0.40
2017,11,05,08,18,0.40
2017,11,05,08,19,0.40
2017,11,05,08,20,0.50
2017,11,05,08,21,0.50
2017,11,05,08,22,0.60
2017,11,05,08,23,0.60
2017,11,05,08,24,0.60
2017,11,05,08,25,0.70
2017,11,05,08,26,0.70
2017,11,05,08,27,0.70
2017,11,05,08,28,0.80
2017,11,05,08,29,0.80
2017,11,05,08,30,0.80
2017,11,05,08,31,0.80
2017,11,05,08,32,0.80
2017,11,05,08,33,0.80
2017,11,05,08,34,0.80
2017,11,05,08,35,0.90
2017,11,05,08,36,0.90
2017,11,05,08,37,1.00
2017,11,05,08,38,1.00
2017,11,05,08,39,1.10
2017,11,05,08,40,1.10
2017,11,05,08,41,1.10
2017,11,05,08,42,1.10
2017,11,05,08,43,1.10
2017,11,05,08,44,1.10
2017,11,05,08,45,1.20
2017,11,05,08,46,1.20
2017,11,05,08,47,1.20
2017,11,05,08,48,1.20
2017,11,05,08,49,1.20
2017,11,05,08,50,1.20
2017,11,05,08,51,1.30
2017,11,05,08,52,1.30
2017,11,05,08,53,1.30
2017,11,05,08,54,1.30
2017,11,05,08,55,1.30
2017,11,05,08,56,1.40
2017,11,05,08,57,1.40
2017,11,05,08,58,1.40
2017,11,05,08,59,1.50
2017,11,05,09,00,1.50
2017,11,05,09,01,1.60
2017,11,05,09,02,1.60
2017,11,05,09,03,1.60
2017,11,05,09,04,1.70
2017,11,05,09,05,1.70
2017,11,05,09,06,1.80
2017,11,05,09,07,1.80
2017,11,05,09,08,1.80
2017,11,05,09,09,1.80
2017,11,05,09,10,1.80
2017,11,05,09,11,1.80
2017,11,05,09,12,1.80
2017,11,05,09,13,1.90
2017,11,05,09,14,1.90
2017,11,05,09,15,2.00
2017,11,05,09,16,2.00
2017,11,05,09,17,2.10
2017,11,05,09,18,2.10
2017,11,05,09,19,2.10
2017,11,05,09,20,2.20
2017,11,05,09,21,2.20
2017,11,05,09,22,2.30
2017,11,05,09,23,2.30
2017,11,05,09,24,2.30
2017,11,05,09,25,2.30
2017,11,05,09,26,2.40
2017,11,05,09,27,2.40
2017,11,05,09,28,2.40
2017,11,05,09,29,2.50
2017,11,05,09,30,2.50
2017,11,05,09,31,2.50
2017,11,05,09,32,2.60
2017,11,05,09,33,2.60
2017,11,05,09,34,2.70
2017,11,05,09,35,2.70
2017,11,05,09,36,2.80
2017,11,05,09,37,2.80
2017,11,05,09,38,2.80
2017,11,05,09,39,2.90
2017,11,05,09,40,2.90
2017,11,05,09,41,2.90
2017,11,05,09,42,2.80
2017,11,05,09,43,2.80
2017,11,05,09,44,2.80
2017,11,05,09,45,2.80
2017,11,05,09,46,2.80
2017,11,05,09,47,2.80
2017,11,05,09,48,2.80
2017,11,05,09,49,2.70
2017,11,05,09,50,2.70
2017,11,05,09,51,2.70
2017,11,05,09,52,2.70
2017,11,05,09,53,2.70
2017,11,05,09,54,2.70
2017,11,05,09,55,2.70
2017,11,05,09,56,2.80
2017,11,05,09,57,2.90
2017,11,05,09,58,2.90
2017,11,05,09,59,3.00
2017,11,05,10,00,3.10
2017,11,05,10,01,3.20
2017,11,05,10,02,3.20
2017,11,05,10,03,3.30
2017,11,05,10,04,3.40
2017,11,05,10,05,3.50
2017,11,05,10,06,3.50
2017,11,05,10,07,3.60
2017,11,05,10,08,3.60
2017,11,05,10,09,3.70
2017,11,05,10,10,3.70
2017,11,05,10,11,3.70
2017,11,05,10,12,3.70
2017,11,05,10,13,3.70
2017,11,05,10,14,3.70
2017,11,05,10,15,3.80
2017,11,05,10,16,3.90
2017,11,05,10,17,4.00
2017,11,05,10,18,4.00
2017,11,05,10,19,4.10
2017,11,05,10,20,4.20
2017,11,05,10,21,4.20
2017,11,05,10,22,4.30
2017,11,05,10,23,4.30
2017,11,05,10,24,4.30
2017,11,05,10,25,4.30
2017,11,05,10,26,4.30
2017,11,05,10,27,4.40
2017,11,05,10,28,4.40
2017,11,05,10,29,4.50
2017,11,05,10,30,4.50
2017,11,05,10,31,4.50
2017,11,05,10,32,4.60
2017,11,05,10,33,4.60
2017,11,05,10,34,4.70
2017,11,05,10,35,4.70
2017,11,05,10,36,4.80
2017,11,05,10,37,4.80
2017,11,05,10,38,4.90
2017,11,05,10,39,4.90
2017,11,05,10,40,4.90
2017,11,05,10,41,4.90
2017,11,05,10,42,4.90
2017,11,05,10,43,4.90
2017,11,05,10,44,4.80
2017,11,05,10,45,4.80
2017,11,05,10,46,4.70
2017,11,05,10,47,4.70
2017,11,05,10,48,4.80
2017,11,05,10,49,4.80
2017,11,05,10,50,4.90
2017,11,05,10,51,5.00
2017,11,05,10,52,5.00
2017,11,05,10,53,5.10
2017,11,05,10,54,5.10
2017,11,05,10,55,5.10
2017,11,05,10,56,5.10
2017,11,05,10,57,5.10
2017,11,05,10,58,5.10
2017,11,05,10,59,5.00
2017,11,05,11,00,4.90
2017,11,05,11,01,4.90
2017,11,05,11,02,4.90
2017,11,05,11,03,4.90
2017,11,05,11,04,4.90
2017,11,05,11,05,4.90
2017,11,05,11,06,4.90
2017,11,05,11,07,4.90
2017,11,05,11,08,4.90
2017,11,05,11,09,4.90
2017,11,05,11,10,5.00
2017,11,05,11,11,5.00
2017,11,05,11,12,5.00
2017,11,05,11,13,5.10
2017,11,05,11,14,5.20
2017,11,05,11,15,5.30
2017,11,05,11,16,5.30
2017,11,05,11,17,5.30
2017,11,05,11,18,5.30
2017,11,05,11,19,5.20
2017,11,05,11,20,5.20
2017,11,05,11,21,5.20
2017,11,05,11,22,5.10
2017,11,05,11,23,5.10
2017,11,05,11,24,5.20
2017,11,05,11,25,5.20
2017,11,05,11,26,5.30
2017,11,05,11,27,5.30
2017,11,05,11,28,5.30
2017,11,05,11,29,5.30
2017,11,05,11,30,5.20
2017,11,05,11,31,5.20
2017,11,05,11,32,5.10
2017,11,05,11,33,5.10
2017,11,05,11,34,5.10
2017,11,05,11,35,5.20
2017,11,05,11,36,5.20
2017,11,05,11,37,5.30
2017,11,05,11,38,5.40
2017,11,05,11,39,5.40
2017,11,05,11,40,5.50
2017,11,05,11,41,5.70
2017,11,05,11,42,5.80
2017,11,05,11,43,6.00
2017,11,05,11,44,6.10
2017,11,05,11,45,6.20
2017,11,05,11,46,6.30
2017,11,05,11,47,6.40
2017,11,05,11,48,6.40
2017,11,05,11,49,6.40
2017,11,05,11,50,6.40
2017,11,05,11,51,6.40
2017,11,05,11,52,6.40
2017,11,05,11,53,6.40
2017,11,05,11,54,6.30
2017,11,05,11,55,6.20
2017,11,05,11,56,6.10
2017,11,05,11,57,6.00
2017,11,05,11,58,5.90
2017,11,05,11,59,5.80
2017,11,05,12,00,5.80
2017,11,05,12,01,5.80
2017,11,05,12,02,5.80
2017,11,05,12,03,5.80
2017,11,05,12,04,5.90
2017,11,05,12,05,5.90
2017,11,05,12,06,6.00
2017,11,05,12,07,6.10
2017,11,05,12,08,6.20
2017,11,05,12,09,6.20
2017,11,05,12,10,6.20
2017,11,05,12,11,6.20
2017,11,05,12,12,6.20
2017,11,05,12,13,6.20
2017,11,05,12,14,6.20
2017,11,05,12,15,6.30
2017,11,05,12,16,6.30
2017,11,05,12,17,6.30
2017,11,05,12,18,6.40
2017,11,05,12,19,6.50
2017,11,05,12,20,6.50
2017,11,05,12,21,6.60
2017,11,05,12,22,6.60
2017,11,05,12,23,6.60
2017,11,05,12,24,6.60
2017,11,05,12,25,6.70
2017,11,05,12,26,6.80
2017,11,05,12,27,6.90
2017,11,05,12,28,6.90
2017,11,05,12,29,7.00
2017,11,05,12,30,7.00
2017,11,05,12,31,7.10
2017,11,05,12,32,7.10
2017,11,05,12,33,7.10
2017,11,05,12,34,7.00
2017,11,05,12,35,7.00
2017,11,05,12,36,6.90
2017,11,05,12,37,6.80
2017,11,05,12,38,6.70
2017,11,05,12,39,6.70
2017,11,05,12,40,6.60
2017,11,05,12,41,6.60
2017,11,05,12,42,6.70
2017,11,05,12,43,6.70
2017,11,05,12,44,6.80
2017,11,05,12,45,6.90
2017,11,05,12,46,6.90
2017,11,05,12,47,6.90
2017,11,05,12,48,6.90
2017,11,05,12,49,6.90
2017,11,05,12,50,6.80
2017,11,05,12,51,6.80
2017,11,05,12,52,6.80
2017,11,05,12,53,6.80
2017,11,05,12,54,6.70
2017,11,05,12,55,6.70
2017,11,05,12,56,6.70
2017,11,05,12,57,6.60
2017,11,05,12,58,6.60
2017,11,05,12,59,6.60
2017,11,05,13,00,6.60
2017,11,05,13,01,6.60
2017,11,05,13,02,6.60
2017,11,05,13,03,6.60
2017,11,05,13,04,6.60
2017,11,05,13,05,6.70
2017,11,05,13,06,6.70
2017,11,05,13,07,6.80
2017,11,05,13,08,6.70
2017,11,05,13,09,6.60
2017,11,05,13,10,6.50
2017,11,05,13,11,6.50
2017,11,05,13,12,6.40
2017,11,05,13,13,6.40
2017,11,05,13,14,6.50
2017,11,05,13,15,6.50
2017,11,05,13,16,6.60
2017,11,05,13,17,6.70
2017,11,05,13,18,6.80
2017,11,05,13,19,6.90
2017,11,05,13,20,6.90
2017,11,05,13,21,7.00
2017,11,05,13,22,7.10
2017,11,05,13,23,7.10
2017,11,05,13,24,7.20
2017,11,05,13,25,7.30
2017,11,05,13,26,7.30
2017,11,05,13,27,7.30
2017,11,05,13,28,7.40
2017,11,05,13,29,7.40
2017,11,05,13,30,7.50
2017,11,05,13,31,7.60
2017,11,05,13,32,7.60
2017,11,05,13,33,7.60
2017,11,05,13,34,7.50
2017,11,05,13,35,7.40
2017,11,05,13,36,7.30
2017,11,05,13,37,7.30
2017,11,05,13,38,7.30
2017,11,05,13,39,7.30
2017,11,05,13,40,7.40
2017,11,05,13,41,7.40
2017,11,05,13,42,7.40
2017,11,05,13,43,7.50
2017,11,05,13,44,7.50
2017,11,05,13,45,7.60
2017,11,05,13,46,7.50
2017,11,05,13,47,7.40
2017,11,05,13,48,7.40
2017,11,05,13,49,7.50
2017,11,05,13,50,7.50
2017,11,05,13,51,7.60
2017,11,05,13,52,7.60
2017,11,05,13,53,7.60
2017,11,05,13,54,7.70
2017,11,05,13,55,7.70
2017,11,05,13,56,7.70
2017,11,05,13,57,7.80
2017,11,05,13,58,7.80
2017,11,05,13,59,7.80
2017,11,05,14,00,7.70
2017,11,05,14,01,7.60
2017,11,05,14,02,7.60
2017,11,05,14,03,7.50
2017,11,05,14,04,7.50
2017,11,05,14,05,7.40
2017,11,05,14,06,7.30
2017,11,05,14,07,7.30
2017,11,05,14,08,7.30
2017,11,05,14,09,7.20
2017,11,05,14,10,7.20
2017,11,05,14,11,7.20
2017,11,05,14,12,7.20
2017,11,05,14,13,7.20
2017,11,05,14,14,7.30
2017,11,05,14,15,7.40
2017,11,05,14,16,7.40
2017,11,05,14,17,7.40
2017,11,05,14,18,7.40
2017,11,05,14,19,7.40
2017,11,05,14,20,7.40
2017,11,05,14,21,7.40
2017,11,05,14,22,7.40
2017,11,05,14,23,7.40
2017,11,05,14,24,7.40
2017,11,05,14,25,7.40
2017,11,05,14,26,7.40
2017,11,05,14,27,7.40
2017,11,05,14,28,7.50
2017,11,05,14,29,7.50
2017,11,05,14,30,7.50
2017,11,05,14,31,7.60
2017,11,05,14,32,7.60
2017,11,05,14,33,7.60
2017,11,05,14,34,7.50
2017,11,05,14,35,7.50
2017,11,05,14,36,7.50
2017,11,05,14,37,7.50
2017,11,05,14,38,7.50
2017,11,05,14,39,7.60
2017,11,05,14,40,7.50
2017,11,05,14,41,7.50
2017,11,05,14,42,7.40
2017,11,05,14,43,7.40
2017,11,05,14,44,7.40
2017,11,05,14,45,7.40
2017,11,05,14,46,7.40
2017,11,05,14,47,7.30
2017,11,05,14,48,7.30
2017,11,05,14,49,7.20
2017,11,05,14,50,7.10
2017,11,05,14,51,7.10
2017,11,05,14,52,7.00
2017,11,05,14,53,6.90
2017,11,05,14,54,6.90
2017,11,05,14,55,6.90
2017,11,05,14,56,6.80
2017,11,05,14,57,6.90
2017,11,05,14,58,6.90
2017,11,05,14,59,6.90
2017,11,05,15,00,7.00
2017,11,05,15,01,7.00
2017,11,05,15,02,7.00
2017,11,05,15,03,7.00
2017,11,05,15,04,6.90
2017,11,05,15,05,6.90
2017,11,05,15,06,6.80
2017,11,05,15,07,6.80
2017,11,05,15,08,6.80
2017,11,05,15,09,6.70
2017,11,05,15,10,6.70
2017,11,05,15,11,6.60
2017,11,05,15,12,6.60
2017,11,05,15,13,6.60
2017,11,05,15,14,6.50
2017,11,05,15,15,6.50
2017,11,05,15,16,6.50
2017,11,05,15,17,6.40
2017,11,05,15,18,6.30
2017,11,05,15,19,6.30
2017,11,05,15,20,6.30
2017,11,05,15,21,6.30
2017,11,05,15,22,6.20
2017,11,05,15,23,6.20
2017,11,05,15,24,6.20
2017,11,05,15,25,6.20
2017,11,05,15,26,6.20
2017,11,05,15,27,6.20
2017,11,05,15,28,6.10
2017,11,05,15,29,6.10
2017,11,05,15,30,6.10
2017,11,05,15,31,6.00
2017,11,05,15,32,6.00
2017,11,05,15,33,5.90
2017,11,05,15,34,5.90
2017,11,05,15,35,5.80
2017,11,05,15,36,5.80
2017,11,05,15,37,5.70
2017,11,05,15,38,5.70
2017,11,05,15,39,5.70
2017,11,05,15,40,5.60
2017,11,05,15,41,5.60
2017,11,05,15,42,5.60
2017,11,05,15,43,5.60
2017,11,05,15,44,5.60
2017,11,05,15,45,5.50
2017,11,05,15,46,5.50
2017,11,05,15,47,5.50
2017,11,05,15,48,5.50
2017,11,05,15,49,5.40
2017,11,05,15,50,5.40
2017,11,05,15,51,5.40
2017,11,05,15,52,5.40
2017,11,05,15,53,5.40
2017,11,05,15,54,5.30
2017,11,05,15,55,5.30
2017,11,05,15,56,5.30
2017,11,05,15,57,5.30
2017,11,05,15,58,5.20
2017,11,05,15,59,5.20
2017,11,05,16,00,5.10
2017,11,05,16,01,5.10
2017,11,05,16,02,5.00
2017,11,05,16,03,5.00
2017,11,05,16,04,5.00
2017,11,05,16,05,4.90
2017,11,05,16,06,4.90
2017,11,05,16,07,4.90
2017,11,05,16,08,4.80
2017,11,05,16,09,4.80
2017,11,05,16,10,4.70
2017,11,05,16,11,4.60
2017,11,05,16,12,4.60
2017,11,05,16,13,4.50
2017,11,05,16,14,4.50
2017,11,05,16,15,4.40
2017,11,05,16,16,4.40
2017,11,05,16,17,4.40
2017,11,05,16,18,4.30
2017,11,05,16,19,4.30
2017,11,05,16,20,4.30
2017,11,05,16,21,4.30
2017,11,05,16,22,4.20
2017,11,05,16,23,4.20
2017,11,05,16,24,4.20
2017,11,05,16,25,4.20
2017,11,05,16,26,4.10
2017,11,05,16,27,4.10
2017,11,05,16,28,4.00
2017,11,05,16,29,4.00
2017,11,05,16,30,3.90
2017,11,05,16,31,3.90
2017,11,05,16,32,3.80
2017,11,05,16,33,3.80
2017,11,05,16,34,3.80
2017,11,05,16,35,3.70
2017,11,05,16,36,3.70
2017,11,05,16,37,3.70
2017,11,05,16,38,3.60
2017,11,05,16,39,3.60
2017,11,05,16,40,3.60
2017,11,05,16,41,3.50
2017,11,05,16,42,3.40
2017,11,05,16,43,3.40
2017,11,05,16,44,3.30
2017,11,05,16,45,3.30
2017,11,05,16,46,3.30
2017,11,05,16,47,3.20
2017,11,05,16,48,3.20
2017,11,05,16,49,3.20
2017,11,05,16,50,3.10
2017,11,05,16,51,3.10
2017,11,05,16,52,3.00
2017,11,05,16,53,2.90
2017,11,05,16,54,2.90
2017,11,05,16,55,2.80
2017,11,05,16,56,2.80
2017,11,05,16,57,2.80
2017,11,05,16,58,2.70
2017,11,05,16,59,2.70
2017,11,05,17,00,2.70
2017,11,05,17,01,2.60
2017,11,05,17,02,2.60
2017,11,05,17,03,2.50
2017,11,05,17,04,2.50
2017,11,05,17,05,2.40
2017,11,05,17,06,2.40
2017,11,05,17,07,2.40
2017,11,05,17,08,2.30
2017,11,05,17,09,2.30
2017,11,05,17,10,2.30
2017,11,05,17,11,2.30
2017,11,05,17,12,2.30
2017,11,05,17,13,2.20
2017,11,05,17,14,2.20
2017,11,05,17,15,2.10
2017,11,05,17,16,2.00
2017,11,05,17,17,2.00
2017,11,05,17,18,2.00
2017,11,05,17,19,1.90
2017,11,05,17,20,1.90
2017,11,05,17,21,1.80
2017,11,05,17,22,1.80
2017,11,05,17,23,1.80
2017,11,05,17,24,1.70
2017,11,05,17,25,1.70
2017,11,05,17,26,1.70
2017,11,05,17,27,1.60
2017,11,05,17,28,1.60
2017,11,05,17,29,1.50
2017,11,05,17,30,1.50
2017,11,05,17,31,1.40
2017,11,05,17,32,1.40
2017,11,05,17,33,1.40
2017,11,05,17,34,1.30
2017,11,05,17,35,1.30
2017,11,05,17,36,1.30
2017,11,05,17,37,1.30
2017,11,05,17,38,1.30
2017,11,05,17,39,1.20
2017,11,05,17,40,1.20
2017,11,05,17,41,1.20
2017,11,05,17,42,1.20
2017,11,05,17,43,1.10
2017,11,05,17,44,1.10
2017,11,05,17,45,1.10
2017,11,05,17,46,1.10
2017,11,05,17,47,1.10
2017,11,05,17,48,1.10
2017,11,05,17,49,1.10
2017,11,05,17,50,1.10
2017,11,05,17,51,1.00
2017,11,05,17,52,1.00
2017,11,05,17,53,1.00
2017,11,05,17,54,0.90
2017,11,05,17,55,0.90
2017,11,05,17,56,0.90
2017,11,05,17,57,0.80
2017,11,05,17,58,0.80
2017,11,05,17,59,0.80
2017,11,05,18,00,0.80
2017,11,05,18,01,0.80
2017,11,05,18,02,0.70
2017,11,05,18,03,0.70
2017,11,05,18,04,0.70
2017,11,05,18,05,0.70
2017,11,05,18,06,0.70